User: anonymous   Login
Location: M.A.R.S.Observatory
(35.4031°N, 81.5481°W)
Time: 21:52:12
(UTC-04:00)
Language:

SL-8 R/B - Orbit

View from above orbital plane
View from above orbital plane
View from above satellite
View from above satellite

Ground track
Ground track

The orbit data is extracted from the following two-line orbital elements,

1 33066U 08031G   16270.19231972  .00000003  00000-0  33177-4 0  9998
2 33066  48.4432 265.1671 0007095  79.4307 336.3503 14.69471155443933
Epoch (UTC): 26 September 2016 04:36:56
Eccentricity: 0.0007095
inclination: 48.4432°
perigee height: 658 km
apogee height: 668 km
right ascension of ascending node: 265.1671°
argument of perigee: 79.4307°
revolutions per day: 14.69471155
mean anomaly at epoch: 336.3503°
orbit number at epoch: 44393

The dashed part of the orbit path shows where the satellite is in the earth's shadow,  

DLR